Time,TemperatureF,DewpointF,PressureIn,WindDirection,WindDirectionDegrees,WindSpeedMPH,WindSpeedGustMPH,Humidity,HourlyPrecipIn,Conditions,Clouds,dailyrainin,SoftwareType,DateUTC
2013-03-03 00:00:00,40.4,26.4,30.26,SSE,147,3.0,3.0,57,0.00,,,0.00,Wunderground v.1.15,2013-03-03 06:00:00,
2013-03-03 00:04:00,40.2,26.0,30.25,SSE,155,3.0,7.0,58,0.00,,,0.00,weatherlink.com 1.10,2013-03-03 06:04:00,
2013-03-03 00:10:00,39.9,26.3,30.25,SSE,148,4.0,4.0,58,0.00,,,0.00,Wunderground v.1.15,2013-03-03 06:10:00,
2013-03-03 00:19:00,39.4,26.0,30.25,SSE,167,4.0,7.0,59,0.00,,,0.00,weatherlink.com 1.10,2013-03-03 06:19:00,
2013-03-03 00:20:00,39.4,26.2,30.25,SSE,159,3.0,5.0,59,0.00,,,0.00,Wunderground v.1.15,2013-03-03 06:20:00,
2013-03-03 00:25:00,39.3,26.6,30.25,SSE,163,3.0,5.0,60,0.00,,,0.00,Wunderground v.1.15,2013-03-03 06:25:00,
2013-03-03 00:35:00,39.1,27.2,30.25,SSE,165,4.0,4.0,62,0.00,,,0.00,Wunderground v.1.15,2013-03-03 06:35:00,
2013-03-03 00:36:00,39.1,27.0,30.25,SSE,165,3.0,8.0,63,0.00,,,0.00,weatherlink.com 1.10,2013-03-03 06:36:00,
2013-03-03 00:45:00,38.7,27.9,30.25,SSE,161,3.0,4.0,65,0.00,,,0.00,Wunderground v.1.15,2013-03-03 06:45:00,
2013-03-03 00:50:00,38.6,28.6,30.25,SSE,159,3.0,3.0,67,0.00,,,0.00,Wunderground v.1.15,2013-03-03 06:50:00,
2013-03-03 00:51:00,38.6,28.0,30.25,SSE,159,5.0,6.0,67,0.00,,,0.00,weatherlink.com 1.10,2013-03-03 06:51:00,
2013-03-03 01:00:00,38.5,28.9,30.24,South,173,4.0,4.0,68,0.00,,,0.00,Wunderground v.1.15,2013-03-03 07:00:00,
2013-03-03 01:05:00,38.7,29.4,30.24,SSE,165,4.0,5.0,69,0.00,,,0.00,Wunderground v.1.15,2013-03-03 07:05:00,
2013-03-03 01:06:00,38.6,29.0,30.24,South,180,4.0,6.0,69,0.00,,,0.00,weatherlink.com 1.10,2013-03-03 07:06:00,
2013-03-03 01:10:00,38.5,29.2,30.24,South,171,4.0,4.0,69,0.00,,,0.00,Wunderground v.1.15,2013-03-03 07:10:00,
2013-03-03 01:15:00,38.4,29.5,30.24,South,173,4.0,4.0,70,0.00,,,0.00,Wunderground v.1.15,2013-03-03 07:15:00,
2013-03-03 01:21:00,38.2,29.0,30.24,SSE,163,3.0,5.0,70,0.00,,,0.00,weatherlink.com 1.10,2013-03-03 07:21:00,
2013-03-03 01:30:00,37.7,29.5,30.24,SSE,165,3.0,5.0,72,0.00,,,0.00,Wunderground v.1.15,2013-03-03 07:30:00,
2013-03-03 01:35:00,37.4,29.5,30.24,SSE,161,3.0,5.0,73,0.00,,,0.00,Wunderground v.1.15,2013-03-03 07:35:00,
2013-03-03 01:36:00,37.4,29.0,30.24,SSE,161,3.0,5.0,73,0.00,,,0.00,weatherlink.com 1.10,2013-03-03 07:36:00,
2013-03-03 01:45:00,37.4,29.5,30.24,SSE,167,4.0,4.0,73,0.00,,,0.00,Wunderground v.1.15,2013-03-03 07:45:00,
2013-03-03 01:50:00,37.4,29.5,30.23,SE,142,4.0,4.0,73,0.00,,,0.00,Wunderground v.1.15,2013-03-03 07:50:00,
2013-03-03 01:51:00,37.5,30.0,30.23,SSE,161,4.0,7.0,73,0.00,,,0.00,weatherlink.com 1.10,2013-03-03 07:51:00,
2013-03-03 01:55:00,37.6,29.7,30.23,SSE,164,4.0,4.0,73,0.00,,,0.00,Wunderground v.1.15,2013-03-03 07:55:00,
2013-03-03 02:05:00,37.4,29.9,30.24,SSE,165,3.0,3.0,74,0.00,,,0.00,Wunderground v.1.15,2013-03-03 08:05:00,
2013-03-03 02:06:00,37.3,30.0,30.23,SSE,165,5.0,5.0,74,0.00,,,0.00,weatherlink.com 1.10,2013-03-03 08:06:00,
2013-03-03 02:15:00,37.2,29.7,30.23,SSE,166,3.0,3.0,74,0.00,,,0.00,Wunderground v.1.15,2013-03-03 08:15:00,
2013-03-03 02:20:00,37.2,29.3,30.23,SSE,166,3.0,3.0,73,0.00,,,0.00,Wunderground v.1.15,2013-03-03 08:20:00,
2013-03-03 02:21:00,37.1,29.0,30.23,SSE,167,3.0,5.0,73,0.00,,,0.00,weatherlink.com 1.10,2013-03-03 08:21:00,
2013-03-03 02:30:00,37.0,29.5,30.23,South,185,3.0,3.0,74,0.00,,,0.00,Wunderground v.1.15,2013-03-03 08:30:00,
2013-03-03 02:36:00,37.1,29.0,30.23,South,184,5.0,7.0,73,0.00,,,0.00,weatherlink.com 1.10,2013-03-03 08:36:00,
2013-03-03 02:45:00,37.3,28.1,30.22,South,190,5.0,6.0,69,0.00,,,0.00,Wunderground v.1.15,2013-03-03 08:45:00,
2013-03-03 02:50:00,37.4,27.8,30.22,South,179,5.0,5.0,68,0.00,,,0.00,Wunderground v.1.15,2013-03-03 08:50:00,
2013-03-03 02:51:00,37.5,27.0,30.22,South,178,3.0,9.0,67,0.00,,,0.00,weatherlink.com 1.10,2013-03-03 08:51:00,
2013-03-03 03:00:00,37.4,27.4,30.22,South,177,4.0,6.0,67,0.00,,,0.00,Wunderground v.1.15,2013-03-03 09:00:00,
2013-03-03 03:05:00,37.3,27.3,30.21,South,182,4.0,6.0,67,0.00,,,0.00,Wunderground v.1.15,2013-03-03 09:05:00,
2013-03-03 03:06:00,37.3,27.0,30.21,SSE,161,6.0,7.0,67,0.00,,,0.00,weatherlink.com 1.10,2013-03-03 09:06:00,
2013-03-03 03:15:00,37.1,27.2,30.21,SSE,161,5.0,6.0,67,0.00,,,0.00,Wunderground v.1.15,2013-03-03 09:15:00,
2013-03-03 03:21:00,36.9,27.0,30.20,SSW,192,7.0,8.0,68,0.00,,,0.00,weatherlink.com 1.10,2013-03-03 09:21:00,
2013-03-03 03:30:00,36.7,26.8,30.20,South,189,6.0,6.0,67,0.00,,,0.00,Wunderground v.1.15,2013-03-03 09:30:00,
2013-03-03 03:37:00,36.8,26.0,30.20,South,180,5.0,7.0,66,0.00,,,0.00,weatherlink.com 1.10,2013-03-03 09:37:00,
2013-03-03 03:45:00,36.7,26.0,30.19,South,171,5.0,5.0,65,0.00,,,0.00,Wunderground v.1.15,2013-03-03 09:45:00,
2013-03-03 03:50:00,36.6,25.9,30.19,South,180,5.0,5.0,65,0.00,,,0.00,Wunderground v.1.15,2013-03-03 09:50:00,
2013-03-03 03:52:00,36.5,26.0,30.19,South,173,6.0,8.0,65,0.00,,,0.00,weatherlink.com 1.10,2013-03-03 09:52:00,
2013-03-03 04:00:00,36.3,25.7,30.19,South,175,5.0,9.0,65,0.00,,,0.00,Wunderground v.1.15,2013-03-03 10:00:00,
2013-03-03 04:05:00,36.5,25.8,30.19,South,183,6.0,9.0,65,0.00,,,0.00,Wunderground v.1.15,2013-03-03 10:05:00,
2013-03-03 04:07:00,36.6,26.0,30.19,South,176,4.0,9.0,65,0.00,,,0.00,weatherlink.com 1.10,2013-03-03 10:07:00,
2013-03-03 04:15:00,37.1,26.0,30.19,South,188,7.0,7.0,64,0.00,,,0.00,Wunderground v.1.15,2013-03-03 10:15:00,
2013-03-03 04:22:00,37.3,26.0,30.19,South,180,6.0,10.0,63,0.00,,,0.00,weatherlink.com 1.10,2013-03-03 10:22:00,
2013-03-03 04:25:00,37.3,25.8,30.18,South,180,7.0,9.0,63,0.00,,,0.00,Wunderground v.1.15,2013-03-03 10:25:00,
2013-03-03 04:30:00,37.3,26.2,30.18,South,184,7.0,8.0,64,0.00,,,0.00,Wunderground v.1.15,2013-03-03 10:30:00,
2013-03-03 04:37:00,37.1,26.0,30.18,South,181,6.0,10.0,64,0.00,,,0.00,weatherlink.com 1.10,2013-03-03 10:37:00,
2013-03-03 04:45:00,37.0,25.9,30.18,South,177,7.0,7.0,64,0.00,,,0.00,Wunderground v.1.15,2013-03-03 10:45:00,
2013-03-03 04:52:00,36.8,26.0,30.18,South,169,5.0,10.0,65,0.00,,,0.00,weatherlink.com 1.10,2013-03-03 10:52:00,
2013-03-03 05:00:00,36.7,26.4,30.18,South,174,7.0,7.0,66,0.00,,,0.00,Wunderground v.1.15,2013-03-03 11:00:00,
2013-03-03 05:05:00,36.8,26.5,30.18,South,184,7.0,7.0,66,0.00,,,0.00,Wunderground v.1.15,2013-03-03 11:05:00,
2013-03-03 05:07:00,36.7,26.0,30.18,SSE,158,8.0,11.0,66,0.00,,,0.00,weatherlink.com 1.10,2013-03-03 11:07:00,
2013-03-03 05:15:00,36.7,27.1,30.17,South,178,6.0,6.0,68,0.00,,,0.00,Wunderground v.1.15,2013-03-03 11:15:00,
2013-03-03 05:20:00,36.7,27.1,30.17,South,186,6.0,6.0,68,0.00,,,0.00,Wunderground v.1.15,2013-03-03 11:20:00,
2013-03-03 05:24:00,36.7,27.0,30.17,SSE,163,6.0,9.0,69,0.00,,,0.00,weatherlink.com 1.10,2013-03-03 11:24:00,
2013-03-03 05:30:00,36.5,27.6,30.17,SSE,166,5.0,5.0,70,0.00,,,0.00,Wunderground v.1.15,2013-03-03 11:30:00,
2013-03-03 05:35:00,36.3,27.4,30.17,South,169,5.0,5.0,70,0.00,,,0.00,Wunderground v.1.15,2013-03-03 11:35:00,
2013-03-03 05:39:00,36.1,27.0,30.17,SSE,165,7.0,8.0,70,0.00,,,0.00,weatherlink.com 1.10,2013-03-03 11:39:00,
2013-03-03 05:45:00,36.0,27.2,30.17,SSE,153,5.0,6.0,70,0.00,,,0.00,Wunderground v.1.15,2013-03-03 11:45:00,
2013-03-03 05:50:00,35.8,27.3,30.17,South,169,5.0,5.0,71,0.00,,,0.00,Wunderground v.1.15,2013-03-03 11:50:00,
2013-03-03 05:53:00,35.7,27.0,30.17,South,182,4.0,7.0,71,0.00,,,0.00,weatherlink.com 1.10,2013-03-03 11:53:00,
2013-03-03 05:55:00,35.6,27.1,30.17,SSE,165,4.0,6.0,71,0.00,,,0.00,Wunderground v.1.15,2013-03-03 11:55:00,
2013-03-03 06:00:00,35.6,27.5,30.17,SSE,167,5.0,5.0,72,0.00,,,0.00,Wunderground v.1.15,2013-03-03 12:00:00,
2013-03-03 06:05:00,35.5,27.4,30.16,South,170,5.0,5.0,72,0.00,,,0.00,Wunderground v.1.15,2013-03-03 12:05:00,
2013-03-03 06:09:00,35.5,27.0,30.16,SSE,168,7.0,10.0,72,0.00,,,0.00,weatherlink.com 1.10,2013-03-03 12:09:00,
2013-03-03 06:15:00,35.9,27.7,30.15,SSE,167,5.0,8.0,72,0.00,,,0.00,Wunderground v.1.15,2013-03-03 12:15:00,
2013-03-03 06:24:00,36.6,28.0,30.15,South,173,7.0,10.0,71,0.00,,,0.00,weatherlink.com 1.10,2013-03-03 12:24:00,
2013-03-03 06:30:00,36.9,28.0,30.15,SSW,198,8.0,8.0,70,0.00,,,0.00,Wunderground v.1.15,2013-03-03 12:30:00,
2013-03-03 06:35:00,37.1,28.2,30.15,SSW,194,9.0,9.0,70,0.00,,,0.00,Wunderground v.1.15,2013-03-03 12:35:00,
2013-03-03 06:39:00,37.2,28.0,30.15,South,184,7.0,14.0,70,0.00,,,0.00,weatherlink.com 1.10,2013-03-03 12:39:00,
2013-03-03 06:45:00,37.1,28.2,30.15,SSE,165,8.0,9.0,70,0.00,,,0.00,Wunderground v.1.15,2013-03-03 12:45:00,
2013-03-03 06:50:00,37.0,28.1,30.15,SSE,167,7.0,7.0,70,0.00,,,0.00,Wunderground v.1.15,2013-03-03 12:50:00,
2013-03-03 06:54:00,36.9,28.0,30.16,South,182,8.0,10.0,70,0.00,,,0.00,weatherlink.com 1.10,2013-03-03 12:54:00,
2013-03-03 07:00:00,37.0,28.1,30.15,SSW,192,7.0,7.0,70,0.00,,,0.00,Wunderground v.1.15,2013-03-03 13:00:00,
2013-03-03 07:05:00,37.0,28.1,30.15,SSE,164,7.0,7.0,70,0.00,,,0.00,Wunderground v.1.15,2013-03-03 13:05:00,
2013-03-03 07:09:00,37.0,28.0,30.15,South,190,8.0,12.0,70,0.00,,,0.00,weatherlink.com 1.10,2013-03-03 13:09:00,
2013-03-03 07:15:00,37.1,28.2,30.15,South,175,7.0,7.0,70,0.00,,,0.00,Wunderground v.1.15,2013-03-03 13:15:00,
2013-03-03 07:20:00,37.2,28.3,30.15,South,179,7.0,7.0,70,0.00,,,0.00,Wunderground v.1.15,2013-03-03 13:20:00,
2013-03-03 07:24:00,37.4,28.0,30.15,SSE,159,9.0,12.0,69,0.00,,,0.00,weatherlink.com 1.10,2013-03-03 13:24:00,
2013-03-03 07:30:00,37.5,28.2,30.15,South,190,8.0,10.0,69,0.00,,,0.00,Wunderground v.1.15,2013-03-03 13:30:00,
2013-03-03 07:35:00,37.6,28.3,30.15,South,180,7.0,10.0,69,0.00,,,0.00,Wunderground v.1.15,2013-03-03 13:35:00,
2013-03-03 07:39:00,37.8,28.0,30.15,South,177,7.0,13.0,68,0.00,,,0.00,weatherlink.com 1.10,2013-03-03 13:39:00,
2013-03-03 07:40:00,37.8,28.2,30.15,South,173,8.0,8.0,68,0.00,,,0.00,Wunderground v.1.15,2013-03-03 13:40:00,
2013-03-03 07:45:00,38.1,28.1,30.16,South,181,7.0,8.0,67,0.00,,,0.00,Wunderground v.1.15,2013-03-03 13:45:00,
2013-03-03 07:54:00,38.7,28.0,30.16,SSW,194,7.0,12.0,65,0.00,,,0.00,weatherlink.com 1.10,2013-03-03 13:54:00,
2013-03-03 08:00:00,39.1,27.9,30.15,SSW,198,8.0,11.0,64,0.00,,,0.00,Wunderground v.1.15,2013-03-03 14:00:00,
2013-03-03 08:05:00,39.5,27.5,30.15,South,180,9.0,11.0,62,0.00,,,0.00,Wunderground v.1.15,2013-03-03 14:05:00,
2013-03-03 08:09:00,39.9,27.0,30.15,SSW,192,15.0,15.0,61,0.00,,,0.00,weatherlink.com 1.10,2013-03-03 14:09:00,
2013-03-03 08:15:00,40.6,27.8,30.15,South,175,10.0,17.0,60,0.00,,,0.00,Wunderground v.1.15,2013-03-03 14:15:00,
2013-03-03 08:20:00,40.9,27.7,30.15,SSW,202,11.0,11.0,59,0.00,,,0.00,Wunderground v.1.15,2013-03-03 14:20:00,
2013-03-03 08:25:00,41.8,27.0,30.15,SSW,201,9.0,19.0,57,0.00,,,0.00,weatherlink.com 1.10,2013-03-03 14:25:00,
2013-03-03 08:30:00,42.5,27.5,30.15,South,189,10.0,12.0,55,0.00,,,0.00,Wunderground v.1.15,2013-03-03 14:30:00,
2013-03-03 08:39:00,44.1,27.0,30.14,SSW,197,6.0,19.0,52,0.00,,,0.00,weatherlink.com 1.10,2013-03-03 14:39:00,
2013-03-03 08:40:00,44.2,27.7,30.15,SSE,167,11.0,11.0,52,0.00,,,0.00,Wunderground v.1.15,2013-03-03 14:40:00,
2013-03-03 08:50:00,45.8,26.7,30.14,South,169,12.0,16.0,47,0.00,,,0.00,Wunderground v.1.15,2013-03-03 14:50:00,
2013-03-03 08:54:00,46.2,27.0,30.14,SSW,205,17.0,26.0,47,0.00,,,0.00,weatherlink.com 1.10,2013-03-03 14:54:00,
2013-03-03 09:00:00,46.8,27.1,30.14,South,190,14.0,17.0,46,0.00,,,0.00,Wunderground v.1.15,2013-03-03 15:00:00,
2013-03-03 09:05:00,47.0,26.7,30.14,SSW,192,15.0,21.0,45,0.00,,,0.00,Wunderground v.1.15,2013-03-03 15:05:00,
2013-03-03 09:09:00,47.5,26.0,30.14,SSW,212,13.0,25.0,44,0.00,,,0.00,weatherlink.com 1.10,2013-03-03 15:09:00,
2013-03-03 09:10:00,47.6,26.7,30.13,SSW,204,16.0,16.0,44,0.00,,,0.00,Wunderground v.1.15,2013-03-03 15:10:00,
2013-03-03 09:20:00,48.3,27.4,30.14,South,182,16.0,16.0,44,0.00,,,0.00,Wunderground v.1.15,2013-03-03 15:20:00,
2013-03-03 09:24:00,48.8,27.0,30.14,SSW,209,12.0,24.0,43,0.00,,,0.00,weatherlink.com 1.10,2013-03-03 15:24:00,
2013-03-03 09:30:00,49.1,27.5,30.13,SW,225,13.0,13.0,43,0.00,,,0.00,Wunderground v.1.15,2013-03-03 15:30:00,
2013-03-03 09:35:00,49.3,27.7,30.13,SSW,194,13.0,16.0,43,0.00,,,0.00,Wunderground v.1.15,2013-03-03 15:35:00,
2013-03-03 09:40:00,49.3,27.7,30.12,SSW,205,15.0,15.0,43,0.00,,,0.00,Wunderground v.1.15,2013-03-03 15:40:00,
2013-03-03 09:41:00,49.3,27.0,30.12,SW,220,18.0,25.0,43,0.00,,,0.00,weatherlink.com 1.10,2013-03-03 15:41:00,
2013-03-03 09:50:00,50.0,27.8,30.12,South,173,14.0,16.0,42,0.00,,,0.00,Wunderground v.1.15,2013-03-03 15:50:00,
2013-03-03 09:56:00,50.3,28.0,30.11,South,182,7.0,20.0,42,0.00,,,0.00,weatherlink.com 1.10,2013-03-03 15:56:00,
2013-03-03 10:05:00,50.8,29.1,30.11,SSW,212,13.0,20.0,43,0.00,,,0.00,Wunderground v.1.15,2013-03-03 16:05:00,
2013-03-03 10:10:00,50.9,28.6,30.11,South,175,13.0,15.0,42,0.00,,,0.00,Wunderground v.1.15,2013-03-03 16:10:00,
2013-03-03 10:11:00,50.9,28.0,30.11,South,184,12.0,22.0,42,0.00,,,0.00,weatherlink.com 1.10,2013-03-03 16:11:00,
2013-03-03 10:20:00,51.3,29.0,30.10,SSW,209,14.0,14.0,42,0.00,,,0.00,Wunderground v.1.15,2013-03-03 16:20:00,
2013-03-03 10:25:00,51.8,29.4,30.10,SW,225,14.0,16.0,42,0.00,,,0.00,Wunderground v.1.15,2013-03-03 16:25:00,
2013-03-03 10:29:00,51.8,29.0,30.10,South,173,15.0,20.0,42,0.00,,,0.00,weatherlink.com 1.10,2013-03-03 16:29:00,
2013-03-03 10:35:00,52.6,29.5,30.10,SSW,196,12.0,13.0,41,0.00,,,0.00,Wunderground v.1.15,2013-03-03 16:35:00,
2013-03-03 10:40:00,52.6,29.5,30.10,SSW,194,12.0,12.0,41,0.00,,,0.00,Wunderground v.1.15,2013-03-03 16:40:00,
2013-03-03 10:41:00,52.8,30.0,30.10,SSW,192,11.0,17.0,42,0.00,,,0.00,weatherlink.com 1.10,2013-03-03 16:41:00,
2013-03-03 10:50:00,53.2,30.1,30.09,SW,217,12.0,12.0,41,0.00,,,0.00,Wunderground v.1.15,2013-03-03 16:50:00,
2013-03-03 10:56:00,53.7,30.0,30.09,SE,140,10.0,19.0,40,0.00,,,0.00,weatherlink.com 1.10,2013-03-03 16:56:00,
2013-03-03 11:05:00,54.8,30.9,30.08,SSW,209,9.0,10.0,40,0.00,,,0.00,Wunderground v.1.15,2013-03-03 17:05:00,
2013-03-03 11:10:00,55.3,30.7,30.08,SSW,192,9.0,14.0,39,0.00,,,0.00,Wunderground v.1.15,2013-03-03 17:10:00,
2013-03-03 11:11:00,55.3,31.0,30.08,SSW,192,7.0,15.0,39,0.00,,,0.00,weatherlink.com 1.10,2013-03-03 17:11:00,
2013-03-03 11:15:00,55.2,30.7,30.08,SW,214,10.0,14.0,39,0.00,,,0.00,Wunderground v.1.15,2013-03-03 17:15:00,
2013-03-03 11:20:00,55.5,30.3,30.08,South,179,11.0,11.0,38,0.00,,,0.00,Wunderground v.1.15,2013-03-03 17:20:00,
2013-03-03 11:25:00,55.6,30.4,30.08,SSE,148,11.0,11.0,38,0.00,,,0.00,Wunderground v.1.15,2013-03-03 17:25:00,
2013-03-03 11:26:00,55.7,30.0,30.07,SE,139,11.0,17.0,38,0.00,,,0.00,weatherlink.com 1.10,2013-03-03 17:26:00,
2013-03-03 11:35:00,56.4,30.4,30.07,South,178,10.0,11.0,37,0.00,,,0.00,Wunderground v.1.15,2013-03-03 17:35:00,
2013-03-03 11:41:00,56.8,31.0,30.07,SSE,167,8.0,16.0,37,0.00,,,0.00,weatherlink.com 1.10,2013-03-03 17:41:00,
2013-03-03 11:50:00,57.4,31.3,30.06,South,190,9.0,9.0,37,0.00,,,0.00,Wunderground v.1.15,2013-03-03 17:50:00,
2013-03-03 11:56:00,57.8,31.0,30.06,SSW,210,8.0,17.0,36,0.00,,,0.00,weatherlink.com 1.10,2013-03-03 17:56:00,
2013-03-03 12:00:00,58.3,31.4,30.06,SSW,204,11.0,11.0,36,0.00,,,0.00,Wunderground v.1.15,2013-03-03 18:00:00,
2013-03-03 12:10:00,59.1,31.4,30.04,South,173,10.0,10.0,35,0.00,,,0.00,Wunderground v.1.15,2013-03-03 18:10:00,
2013-03-03 12:11:00,59.3,31.0,30.04,SSW,203,10.0,17.0,35,0.00,,,0.00,weatherlink.com 1.10,2013-03-03 18:11:00,
2013-03-03 12:20:00,58.8,31.9,30.03,SSW,198,12.0,12.0,36,0.00,,,0.00,Wunderground v.1.15,2013-03-03 18:20:00,
2013-03-03 12:25:00,59.5,31.8,30.02,South,169,12.0,12.0,35,0.00,,,0.00,Wunderground v.1.15,2013-03-03 18:25:00,
2013-03-03 12:27:00,59.9,32.0,30.02,SSW,210,15.0,17.0,35,0.00,,,0.00,weatherlink.com 1.10,2013-03-03 18:27:00,
2013-03-03 12:35:00,59.9,31.4,30.02,SSW,192,13.0,14.0,34,0.00,,,0.00,Wunderground v.1.15,2013-03-03 18:35:00,
2013-03-03 12:40:00,60.3,32.5,30.01,SSW,213,12.0,12.0,35,0.00,,,0.00,Wunderground v.1.15,2013-03-03 18:40:00,
2013-03-03 12:44:00,60.6,33.0,30.02,SSW,198,13.0,19.0,35,0.00,,,0.00,weatherlink.com 1.10,2013-03-03 18:44:00,
2013-03-03 12:50:00,60.6,32.8,30.01,South,190,12.0,12.0,35,0.00,,,0.00,Wunderground v.1.15,2013-03-03 18:50:00,
2013-03-03 12:57:00,61.1,32.0,30.00,SW,217,12.0,22.0,34,0.00,,,0.00,weatherlink.com 1.10,2013-03-03 18:57:00,
2013-03-03 13:05:00,61.7,32.3,29.99,South,185,12.0,15.0,33,0.00,,,0.00,Wunderground v.1.15,2013-03-03 19:05:00,
2013-03-03 13:10:00,61.9,32.5,29.98,SSW,200,14.0,14.0,33,0.00,,,0.00,Wunderground v.1.15,2013-03-03 19:10:00,
2013-03-03 13:12:00,62.1,33.0,29.98,South,174,16.0,22.0,34,0.00,,,0.00,weatherlink.com 1.10,2013-03-03 19:12:00,
2013-03-03 13:20:00,62.4,32.9,29.97,SSW,207,13.0,13.0,33,0.00,,,0.00,Wunderground v.1.15,2013-03-03 19:20:00,
2013-03-03 13:25:00,62.5,33.0,29.96,South,184,14.0,20.0,33,0.00,,,0.00,Wunderground v.1.15,2013-03-03 19:25:00,
2013-03-03 13:27:00,62.3,33.0,29.96,SSW,195,19.0,24.0,33,0.00,,,0.00,weatherlink.com 1.10,2013-03-03 19:27:00,
2013-03-03 13:30:00,62.5,33.0,29.96,South,171,13.0,15.0,33,0.00,,,0.00,Wunderground v.1.15,2013-03-03 19:30:00,
2013-03-03 13:35:00,63.0,33.4,29.95,South,183,13.0,18.0,33,0.00,,,0.00,Wunderground v.1.15,2013-03-03 19:35:00,
2013-03-03 13:40:00,63.6,33.9,29.95,South,175,13.0,13.0,33,0.00,,,0.00,Wunderground v.1.15,2013-03-03 19:40:00,
2013-03-03 13:42:00,63.8,34.0,29.95,SSW,212,7.0,24.0,33,0.00,,,0.00,weatherlink.com 1.10,2013-03-03 19:42:00,
2013-03-03 13:50:00,64.4,33.9,29.94,SSE,163,12.0,16.0,32,0.00,,,0.00,Wunderground v.1.15,2013-03-03 19:50:00,
2013-03-03 13:55:00,64.3,33.8,29.94,SSW,205,14.0,17.0,32,0.00,,,0.00,Wunderground v.1.15,2013-03-03 19:55:00,
2013-03-03 13:59:00,64.6,34.0,29.93,South,179,8.0,22.0,32,0.00,,,0.00,weatherlink.com 1.10,2013-03-03 19:59:00,
2013-03-03 14:05:00,64.6,34.1,29.93,South,180,14.0,17.0,32,0.00,,,0.00,Wunderground v.1.15,2013-03-03 20:05:00,
2013-03-03 14:10:00,64.8,34.2,29.92,SSE,160,14.0,16.0,32,0.00,,,0.00,Wunderground v.1.15,2013-03-03 20:10:00,
2013-03-03 14:12:00,64.9,34.0,29.92,South,169,15.0,21.0,32,0.00,,,0.00,weatherlink.com 1.10,2013-03-03 20:12:00,
2013-03-03 14:20:00,65.4,34.8,29.91,South,178,13.0,14.0,32,0.00,,,0.00,Wunderground v.1.15,2013-03-03 20:20:00,
2013-03-03 14:25:00,65.1,34.5,29.91,SSE,166,14.0,18.0,32,0.00,,,0.00,Wunderground v.1.15,2013-03-03 20:25:00,
2013-03-03 14:29:00,65.7,35.0,29.90,SSE,163,10.0,26.0,32,0.00,,,0.00,weatherlink.com 1.10,2013-03-03 20:29:00,
2013-03-03 14:35:00,66.7,35.1,29.90,South,183,12.0,18.0,31,0.00,,,0.00,Wunderground v.1.15,2013-03-03 20:35:00,
2013-03-03 14:40:00,66.7,35.1,29.89,SSE,157,13.0,13.0,31,0.00,,,0.00,Wunderground v.1.15,2013-03-03 20:40:00,
2013-03-03 14:44:00,66.8,34.0,29.89,SSE,165,16.0,26.0,30,0.00,,,0.00,weatherlink.com 1.10,2013-03-03 20:44:00,
2013-03-03 14:50:00,67.1,34.6,29.90,South,180,13.0,13.0,30,0.00,,,0.00,Wunderground v.1.15,2013-03-03 20:50:00,
2013-03-03 14:59:00,67.1,35.0,29.89,SSW,212,18.0,23.0,30,0.00,,,0.00,weatherlink.com 1.10,2013-03-03 20:59:00,
2013-03-03 15:05:00,67.2,34.7,29.89,SW,222,14.0,16.0,30,0.00,,,0.00,Wunderground v.1.15,2013-03-03 21:05:00,
2013-03-03 15:14:00,67.3,35.0,29.88,South,186,13.0,22.0,30,0.00,,,0.00,weatherlink.com 1.10,2013-03-03 21:14:00,
2013-03-03 15:20:00,67.6,35.0,29.89,South,181,14.0,15.0,30,0.00,,,0.00,Wunderground v.1.15,2013-03-03 21:20:00,
2013-03-03 15:28:00,67.4,35.0,29.88,SSW,194,14.0,24.0,30,0.00,,,0.00,weatherlink.com 1.10,2013-03-03 21:28:00,
2013-03-03 15:35:00,68.2,34.7,29.87,South,180,15.0,19.0,29,0.00,,,0.00,Wunderground v.1.15,2013-03-03 21:35:00,
2013-03-03 15:44:00,67.7,34.0,29.86,SSW,208,9.0,24.0,29,0.00,,,0.00,weatherlink.com 1.10,2013-03-03 21:44:00,
2013-03-03 15:45:00,67.7,34.3,29.87,South,184,16.0,25.0,29,0.00,,,0.00,Wunderground v.1.15,2013-03-03 21:45:00,
2013-03-03 15:50:00,67.7,34.3,29.86,South,174,16.0,16.0,29,0.00,,,0.00,Wunderground v.1.15,2013-03-03 21:50:00,
2013-03-03 15:55:00,67.6,34.2,29.86,SSE,158,15.0,17.0,29,0.00,,,0.00,Wunderground v.1.15,2013-03-03 21:55:00,
2013-03-03 15:59:00,67.7,34.0,29.86,SSW,212,21.0,25.0,29,0.00,,,0.00,weatherlink.com 1.10,2013-03-03 21:59:00,
2013-03-03 16:05:00,67.7,34.3,29.86,SSE,165,15.0,15.0,29,0.00,,,0.00,Wunderground v.1.15,2013-03-03 22:05:00,
2013-03-03 16:10:00,67.5,35.0,29.84,SSE,167,16.0,18.0,30,0.00,,,0.00,Wunderground v.1.15,2013-03-03 22:10:00,
2013-03-03 16:15:00,67.5,35.0,29.85,SW,215,18.0,23.0,30,0.00,,,0.00,weatherlink.com 1.10,2013-03-03 22:15:00,
2013-03-03 16:20:00,67.4,34.9,29.84,SSE,163,13.0,13.0,30,0.00,,,0.00,Wunderground v.1.15,2013-03-03 22:20:00,
2013-03-03 16:25:00,67.0,35.3,29.84,South,173,13.0,13.0,31,0.00,,,0.00,Wunderground v.1.15,2013-03-03 22:25:00,
2013-03-03 16:29:00,67.0,35.0,29.84,SSE,157,14.0,19.0,31,0.00,,,0.00,weatherlink.com 1.10,2013-03-03 22:29:00,
2013-03-03 16:35:00,67.5,35.8,29.84,SSE,168,10.0,17.0,31,0.00,,,0.00,Wunderground v.1.15,2013-03-03 22:35:00,
2013-03-03 16:40:00,67.6,34.2,29.84,SSW,200,13.0,13.0,29,0.00,,,0.00,Wunderground v.1.15,2013-03-03 22:40:00,
2013-03-03 16:44:00,67.6,34.0,29.84,South,169,10.0,24.0,29,0.00,,,0.00,weatherlink.com 1.10,2013-03-03 22:44:00,
2013-03-03 16:50:00,67.5,35.0,29.83,SSW,198,13.0,16.0,30,0.00,,,0.00,Wunderground v.1.15,2013-03-03 22:50:00,
2013-03-03 16:55:00,67.2,35.5,29.83,SSE,160,13.0,16.0,31,0.00,,,0.00,Wunderground v.1.15,2013-03-03 22:55:00,
2013-03-03 16:59:00,66.8,35.0,29.83,South,173,16.0,21.0,31,0.00,,,0.00,weatherlink.com 1.10,2013-03-03 22:59:00,
2013-03-03 17:00:00,66.8,35.2,29.82,South,175,13.0,13.0,31,0.00,,,0.00,Wunderground v.1.15,2013-03-03 23:00:00,
2013-03-03 17:05:00,66.3,34.7,29.83,SSE,160,13.0,13.0,31,0.00,,,0.00,Wunderground v.1.15,2013-03-03 23:05:00,
2013-03-03 17:14:00,65.9,35.0,29.82,ESE,121,13.0,22.0,32,0.00,,,0.00,weatherlink.com 1.10,2013-03-03 23:14:00,
2013-03-03 17:20:00,65.7,35.0,29.82,South,179,12.0,15.0,32,0.00,,,0.00,Wunderground v.1.15,2013-03-03 23:20:00,
2013-03-03 17:25:00,65.6,35.7,29.82,South,179,13.0,15.0,33,0.00,,,0.00,Wunderground v.1.15,2013-03-03 23:25:00,
2013-03-03 17:29:00,65.8,35.0,29.82,South,170,14.0,21.0,32,0.00,,,0.00,weatherlink.com 1.10,2013-03-03 23:29:00,
2013-03-03 17:35:00,65.8,35.9,29.81,South,170,13.0,14.0,33,0.00,,,0.00,Wunderground v.1.15,2013-03-03 23:35:00,
2013-03-03 17:44:00,65.6,36.0,29.81,SSE,159,14.0,22.0,33,0.00,,,0.00,weatherlink.com 1.10,2013-03-03 23:44:00,
2013-03-03 17:50:00,65.6,35.7,29.81,SSE,156,11.0,14.0,33,0.00,,,0.00,Wunderground v.1.15,2013-03-03 23:50:00,
2013-03-03 17:59:00,65.5,36.0,29.80,South,175,7.0,20.0,33,0.00,,,0.00,weatherlink.com 1.10,2013-03-03 23:59:00,
2013-03-03 18:05:00,65.4,35.5,29.80,South,178,12.0,12.0,33,0.00,,,0.00,Wunderground v.1.15,2013-03-04 00:05:00,
2013-03-03 18:15:00,65.1,35.3,29.80,South,186,11.0,11.0,33,0.00,,,0.00,Wunderground v.1.15,2013-03-04 00:15:00,
2013-03-03 18:16:00,65.0,35.0,29.80,South,188,8.0,19.0,33,0.00,,,0.00,weatherlink.com 1.10,2013-03-04 00:16:00,
2013-03-03 18:25:00,64.7,34.9,29.80,South,179,12.0,14.0,33,0.00,,,0.00,Wunderground v.1.15,2013-03-04 00:25:00,
2013-03-03 18:30:00,64.4,35.4,29.80,South,182,12.0,12.0,34,0.00,,,0.00,Wunderground v.1.15,2013-03-04 00:30:00,
2013-03-03 18:31:00,64.4,35.0,29.80,South,186,12.0,22.0,34,0.00,,,0.00,weatherlink.com 1.10,2013-03-04 00:31:00,
2013-03-03 18:40:00,64.0,35.8,29.80,South,175,11.0,11.0,35,0.00,,,0.00,Wunderground v.1.15,2013-03-04 00:40:00,
2013-03-03 18:45:00,63.8,35.6,29.80,South,170,11.0,11.0,35,0.00,,,0.00,Wunderground v.1.15,2013-03-04 00:45:00,
2013-03-03 18:46:00,63.8,36.0,29.79,SSE,165,10.0,20.0,35,0.00,,,0.00,weatherlink.com 1.10,2013-03-04 00:46:00,
2013-03-03 18:55:00,63.6,36.1,29.80,South,175,11.0,15.0,36,0.00,,,0.00,Wunderground v.1.15,2013-03-04 00:55:00,
2013-03-03 19:00:00,63.4,36.0,29.80,South,188,11.0,11.0,36,0.00,,,0.00,Wunderground v.1.15,2013-03-04 01:00:00,
2013-03-03 19:01:00,63.4,36.0,29.80,SSE,149,10.0,19.0,36,0.00,,,0.00,weatherlink.com 1.10,2013-03-04 01:01:00,
2013-03-03 19:10:00,63.2,36.5,29.80,SSW,195,11.0,11.0,37,0.00,,,0.00,Wunderground v.1.15,2013-03-04 01:10:00,
2013-03-03 19:17:00,63.1,36.0,29.80,South,186,13.0,16.0,37,0.00,,,0.00,weatherlink.com 1.10,2013-03-04 01:17:00,
2013-03-03 19:25:00,62.9,36.2,29.79,South,173,11.0,14.0,37,0.00,,,0.00,Wunderground v.1.15,2013-03-04 01:25:00,
2013-03-03 19:31:00,62.7,37.0,29.79,SSW,193,8.0,22.0,38,0.00,,,0.00,weatherlink.com 1.10,2013-03-04 01:31:00,
2013-03-03 19:40:00,62.4,37.1,29.78,SSE,160,11.0,11.0,39,0.00,,,0.00,Wunderground v.1.15,2013-03-04 01:40:00,
2013-03-03 19:46:00,62.2,37.0,29.79,SSE,155,13.0,20.0,39,0.00,,,0.00,weatherlink.com 1.10,2013-03-04 01:46:00,
2013-03-03 19:55:00,62.0,37.4,29.78,SSE,158,11.0,17.0,40,0.00,,,0.00,Wunderground v.1.15,2013-03-04 01:55:00,
2013-03-03 20:00:00,61.9,37.3,29.78,SSE,161,12.0,13.0,40,0.00,,,0.00,Wunderground v.1.15,2013-03-04 02:00:00,
2013-03-03 20:01:00,61.9,37.0,29.78,SSE,161,12.0,20.0,40,0.00,,,0.00,weatherlink.com 1.10,2013-03-04 02:01:00,
2013-03-03 20:10:00,61.7,37.1,29.78,South,169,13.0,17.0,40,0.00,,,0.00,Wunderground v.1.15,2013-03-04 02:10:00,
2013-03-03 20:16:00,61.5,37.0,29.78,South,175,10.0,22.0,41,0.00,,,0.00,weatherlink.com 1.10,2013-03-04 02:16:00,
2013-03-03 20:25:00,61.3,37.4,29.77,South,169,10.0,11.0,41,0.00,,,0.00,Wunderground v.1.15,2013-03-04 02:25:00,
2013-03-03 20:31:00,61.0,37.0,29.77,South,171,10.0,17.0,41,0.00,,,0.00,weatherlink.com 1.10,2013-03-04 02:31:00,
2013-03-03 20:40:00,60.7,37.5,29.77,South,178,11.0,11.0,42,0.00,,,0.00,Wunderground v.1.15,2013-03-04 02:40:00,
2013-03-03 20:45:00,60.5,37.3,29.77,SSW,206,11.0,15.0,42,0.00,,,0.00,Wunderground v.1.15,2013-03-04 02:45:00,
2013-03-03 20:46:00,60.5,37.0,29.76,South,171,10.0,18.0,42,0.00,,,0.00,weatherlink.com 1.10,2013-03-04 02:46:00,
2013-03-03 20:50:00,60.5,37.3,29.76,SSE,152,11.0,14.0,42,0.00,,,0.00,Wunderground v.1.15,2013-03-04 02:50:00,
2013-03-03 20:55:00,60.4,37.2,29.76,SSE,153,11.0,14.0,42,0.00,,,0.00,Wunderground v.1.15,2013-03-04 02:55:00,
2013-03-03 21:00:00,60.4,37.2,29.77,South,189,11.0,13.0,42,0.00,,,0.00,Wunderground v.1.15,2013-03-04 03:00:00,
2013-03-03 21:01:00,60.3,37.0,29.77,South,182,15.0,20.0,43,0.00,,,0.00,weatherlink.com 1.10,2013-03-04 03:01:00,
2013-03-03 21:10:00,60.1,37.5,29.77,SE,144,11.0,11.0,43,0.00,,,0.00,Wunderground v.1.15,2013-03-04 03:10:00,
2013-03-03 21:15:00,60.0,37.4,29.77,South,183,11.0,14.0,43,0.00,,,0.00,Wunderground v.1.15,2013-03-04 03:15:00,
2013-03-03 21:16:00,60.0,37.0,29.77,SSE,153,4.0,18.0,43,0.00,,,0.00,weatherlink.com 1.10,2013-03-04 03:16:00,
2013-03-03 21:25:00,60.0,37.4,29.76,SSE,159,10.0,12.0,43,0.00,,,0.00,Wunderground v.1.15,2013-03-04 03:25:00,
2013-03-03 21:30:00,60.0,38.0,29.76,South,173,11.0,11.0,44,0.00,,,0.00,Wunderground v.1.15,2013-03-04 03:30:00,
2013-03-03 21:32:00,60.0,37.0,29.76,SSE,164,8.0,17.0,43,0.00,,,0.00,weatherlink.com 1.10,2013-03-04 03:32:00,
2013-03-03 21:40:00,60.4,37.8,29.76,South,171,12.0,13.0,43,0.00,,,0.00,Wunderground v.1.15,2013-03-04 03:40:00,
2013-03-03 21:45:00,60.4,37.8,29.76,SE,144,12.0,16.0,43,0.00,,,0.00,Wunderground v.1.15,2013-03-04 03:45:00,
2013-03-03 21:47:00,60.4,38.0,29.76,SSE,152,7.0,23.0,43,0.00,,,0.00,weatherlink.com 1.10,2013-03-04 03:47:00,
2013-03-03 21:55:00,60.3,37.7,29.75,SSE,167,13.0,18.0,43,0.00,,,0.00,Wunderground v.1.15,2013-03-04 03:55:00,
2013-03-03 22:02:00,60.3,37.0,29.75,South,180,7.0,21.0,43,0.00,,,0.00,weatherlink.com 1.10,2013-03-04 04:02:00,
2013-03-03 22:10:00,60.4,37.8,29.75,SSE,166,11.0,11.0,43,0.00,,,0.00,Wunderground v.1.15,2013-03-04 04:10:00,
2013-03-03 22:15:00,60.4,37.2,29.75,SSE,161,11.0,18.0,42,0.00,,,0.00,Wunderground v.1.15,2013-03-04 04:15:00,
2013-03-03 22:17:00,60.5,37.0,29.75,SSE,161,16.0,20.0,42,0.00,,,0.00,weatherlink.com 1.10,2013-03-04 04:17:00,
2013-03-03 22:25:00,60.5,37.3,29.74,SSE,160,12.0,12.0,42,0.00,,,0.00,Wunderground v.1.15,2013-03-04 04:25:00,
2013-03-03 22:30:00,60.8,36.9,29.74,South,180,13.0,17.0,41,0.00,,,0.00,Wunderground v.1.15,2013-03-04 04:30:00,
2013-03-03 22:32:00,60.8,37.0,29.74,South,173,11.0,22.0,41,0.00,,,0.00,weatherlink.com 1.10,2013-03-04 04:32:00,
2013-03-03 22:35:00,60.9,37.0,29.74,SSE,160,13.0,17.0,41,0.00,,,0.00,Wunderground v.1.15,2013-03-04 04:35:00,
2013-03-03 22:40:00,61.0,37.1,29.74,ESE,118,12.0,13.0,41,0.00,,,0.00,Wunderground v.1.15,2013-03-04 04:40:00,
2013-03-03 22:45:00,61.3,36.8,29.74,South,172,13.0,13.0,40,0.00,,,0.00,Wunderground v.1.15,2013-03-04 04:45:00,
2013-03-03 22:47:00,61.4,37.0,29.74,South,171,13.0,21.0,40,0.00,,,0.00,weatherlink.com 1.10,2013-03-04 04:47:00,
2013-03-03 22:55:00,61.4,36.8,29.74,SW,233,13.0,17.0,40,0.00,,,0.00,Wunderground v.1.15,2013-03-04 04:55:00,
2013-03-03 23:00:00,61.4,36.8,29.73,SSE,153,13.0,16.0,40,0.00,,,0.00,Wunderground v.1.15,2013-03-04 05:00:00,
2013-03-03 23:02:00,61.5,37.0,29.73,SSE,165,15.0,21.0,40,0.00,,,0.00,weatherlink.com 1.10,2013-03-04 05:02:00,
2013-03-03 23:05:00,61.5,36.3,29.73,South,171,14.0,16.0,39,0.00,,,0.00,Wunderground v.1.15,2013-03-04 05:05:00,
2013-03-03 23:10:00,61.7,36.5,29.73,South,186,15.0,15.0,39,0.00,,,0.00,Wunderground v.1.15,2013-03-04 05:10:00,
2013-03-03 23:15:00,61.8,36.6,29.73,South,169,15.0,15.0,39,0.00,,,0.00,Wunderground v.1.15,2013-03-04 05:15:00,
2013-03-03 23:17:00,61.8,36.0,29.73,South,186,22.0,23.0,39,0.00,,,0.00,weatherlink.com 1.10,2013-03-04 05:17:00,
2013-03-03 23:25:00,61.8,36.6,29.72,SSE,164,15.0,18.0,39,0.00,,,0.00,Wunderground v.1.15,2013-03-04 05:25:00,
2013-03-03 23:30:00,61.8,36.6,29.71,SSE,159,14.0,25.0,39,0.00,,,0.00,Wunderground v.1.15,2013-03-04 05:30:00,
2013-03-03 23:34:00,61.7,36.0,29.71,South,171,21.0,25.0,39,0.00,,,0.00,weatherlink.com 1.10,2013-03-04 05:34:00,
2013-03-03 23:35:00,61.7,36.5,29.71,South,188,16.0,25.0,39,0.00,,,0.00,Wunderground v.1.15,2013-03-04 05:35:00,
2013-03-03 23:45:00,61.5,36.9,29.70,South,175,13.0,19.0,40,0.00,,,0.00,Wunderground v.1.15,2013-03-04 05:45:00,
2013-03-03 23:49:00,61.4,37.0,29.70,South,180,13.0,25.0,40,0.00,,,0.00,weatherlink.com 1.10,2013-03-04 05:49:00,
2013-03-03 23:50:00,61.5,36.9,29.70,South,173,14.0,14.0,40,0.00,,,0.00,Wunderground v.1.15,2013-03-04 05:50:00,
2013-03-03 23:55:00,61.4,36.8,29.70,South,180,14.0,14.0,40,0.00,,,0.00,Wunderground v.1.15,2013-03-04 05:55:00,